Weather History for Ozona, TX

Change the Weather History Date:

Sunday, October 27, 2013

  Actual Average Record
Temperature  
Mean Temperature 62 °F -  
Max Temperature 73 °F 75 °F 84 °F (2014)
Min Temperature 51 °F 48 °F 42 °F (2012)
Degree Days  
Heating Degree Days 3    
Growing Degree Days 12 (Base 50)    
Moisture  
Dew Point 51 °F    
Average Humidity 74    
Maximum Humidity 94    
Minimum Humidity 47    
Precipitation  
Precipitation 0.00 in - - ()
Sea Level Pressure  
Sea Level Pressure 30.13 in    
Wind  
Wind Speed 4 mph (NNE)    
Max Wind Speed 9 mph    
Max Gust Speed -    
Visibility 10 miles    
Events      
Averages and records for this station are not official NWS values.
T = Trace of Precipitation, MM = Missing Value Source: NWS Daily Summary

Daily Weather History Graph

Daily Weather History Graph

Search for Another Location

Airport:

Trip Planner

Search our weather history database for the weather conditions in past years. The results will help you decide how hot, cold, wet, or windy it might be!

Date:

Astronomy

Oct. 27, 2013 Rise Set
Actual Time 7:56 AM CDT 7:00 PM CDT
Civil Twilight 7:31 AM CDT 7:25 PM CDT
Nautical Twilight 7:02 AM CDT 7:53 PM CDT
Astronomical Twilight 6:34 AM CDT 8:21 PM CDT
Moon 1:21 AM CDT (10/27) 2:46 PM CDT (10/27)
Length of Visible Light 11h 54m
Length of Day
11h 04m
Last Quarter, 43% of the Moon is Illuminated
Oct 27
Last Quarter
Nov 3
New
Nov 9
First Quarter
Nov 17
Full
Nov 25
Last Quarter

Hourly Weather History & Observations

Time (CDT) Temp. Dew Point Humidity Pressure Visibility Wind Dir Wind Speed Gust Speed Precip Events Conditions
12:15 AM 55.4 °F 53.6 °F 94% 30.18 in 10.0 mi Calm Calm - N/A   Clear
12:35 AM 55.4 °F 53.6 °F 94% 30.17 in 10.0 mi Calm Calm - N/A   Clear
12:55 AM 53.6 °F 51.8 °F 94% 30.16 in 10.0 mi Calm Calm - N/A   Clear
1:15 AM 53.6 °F 51.8 °F 94% 30.16 in 10.0 mi Calm Calm - N/A   Clear
1:35 AM 53.6 °F 51.8 °F 94% 30.15 in 10.0 mi NNE 3.5 mph - N/A   Clear
1:55 AM 53.6 °F 51.8 °F 94% 30.15 in 10.0 mi North 4.6 mph - N/A   Clear
2:15 AM 53.6 °F 51.8 °F 94% 30.15 in 7.0 mi NNE 5.8 mph - N/A   Clear
2:35 AM 53.6 °F 51.8 °F 94% 30.16 in 7.0 mi North 8.1 mph - N/A   Clear
2:55 AM 59.0 °F 57.2 °F 94% 30.17 in 10.0 mi North 9.2 mph - N/A   Mostly Cloudy
3:15 AM 60.8 °F 55.4 °F 82% 30.17 in 10.0 mi North 9.2 mph - N/A   Mostly Cloudy
3:35 AM 59.0 °F 53.6 °F 82% 30.16 in 10.0 mi North 8.1 mph - N/A   Overcast
3:55 AM 59.0 °F 51.8 °F 77% 30.16 in 10.0 mi NNE 8.1 mph - N/A   Overcast
4:15 AM 59.0 °F 50.0 °F 72% 30.16 in 10.0 mi NNE 9.2 mph - N/A   Mostly Cloudy
4:35 AM 59.0 °F 50.0 °F 72% 30.16 in 10.0 mi NNE 6.9 mph - N/A   Mostly Cloudy
4:55 AM 57.2 °F 50.0 °F 77% 30.16 in 10.0 mi NNE 3.5 mph - N/A   Overcast
5:15 AM 55.4 °F 50.0 °F 82% 30.17 in 10.0 mi North 5.8 mph - N/A   Overcast
5:35 AM 55.4 °F 48.2 °F 77% 30.16 in 10.0 mi North 9.2 mph - N/A   Scattered Clouds
5:55 AM 53.6 °F 48.2 °F 82% 30.16 in 10.0 mi North 8.1 mph - N/A   Scattered Clouds
6:15 AM 53.6 °F 48.2 °F 82% 30.17 in 10.0 mi North 5.8 mph - N/A   Scattered Clouds
6:35 AM 53.6 °F 46.4 °F 77% 30.17 in 10.0 mi Calm Calm - N/A   Scattered Clouds
6:55 AM 53.6 °F 46.4 °F 77% 30.17 in 10.0 mi NNE 6.9 mph - N/A   Scattered Clouds
7:15 AM 51.8 °F 46.4 °F 82% 30.17 in 10.0 mi Calm Calm - N/A   Clear
7:35 AM 51.8 °F 46.4 °F 82% 30.18 in 10.0 mi North 3.5 mph - N/A   Scattered Clouds
7:55 AM 51.8 °F 46.4 °F 82% 30.18 in 10.0 mi North 3.5 mph - N/A   Scattered Clouds
8:15 AM 51.8 °F 46.4 °F 82% 30.19 in 10.0 mi Calm Calm - N/A   Mostly Cloudy
8:35 AM 51.8 °F 46.4 °F 82% 30.19 in 10.0 mi NNW 3.5 mph - N/A   Mostly Cloudy
8:55 AM 53.6 °F 46.4 °F 77% 30.20 in 10.0 mi North 4.6 mph - N/A   Scattered Clouds
9:15 AM 55.4 °F 48.2 °F 77% 30.20 in 10.0 mi North 6.9 mph - N/A   Mostly Cloudy
9:35 AM 55.4 °F 48.2 °F 77% 30.20 in 10.0 mi NNE 5.8 mph - N/A   Mostly Cloudy
9:55 AM 55.4 °F 50.0 °F 82% 30.21 in 10.0 mi NNE 8.1 mph - N/A   Scattered Clouds
10:15 AM 59.0 °F 50.0 °F 72% 30.22 in 10.0 mi NNE 8.1 mph - N/A   Scattered Clouds
10:35 AM 59.0 °F 51.8 °F 77% 30.22 in 10.0 mi NNE 6.9 mph - N/A   Clear
10:55 AM 62.6 °F 51.8 °F 68% 30.22 in 10.0 mi North 5.8 mph - N/A   Clear
11:15 AM 62.6 °F 51.8 °F 68% 30.21 in 10.0 mi North 5.8 mph - N/A   Clear
11:35 AM 64.4 °F 51.8 °F 64% 30.21 in 10.0 mi NNE 6.9 mph - N/A   Clear
11:55 AM 64.4 °F 51.8 °F 64% 30.20 in 10.0 mi North 5.8 mph - N/A   Clear
12:15 PM 66.2 °F 51.8 °F 60% 30.19 in 10.0 mi North 4.6 mph - N/A   Clear
12:35 PM 68.0 °F 51.8 °F 56% 30.18 in 10.0 mi North 6.9 mph - N/A   Clear
12:55 PM 68.0 °F 51.8 °F 56% 30.17 in 10.0 mi North 4.6 mph - N/A   Clear
1:15 PM 69.8 °F 51.8 °F 53% 30.16 in 10.0 mi NE 9.2 mph - N/A   Clear
1:35 PM 69.8 °F 51.8 °F 53% 30.15 in 10.0 mi NE 6.9 mph - N/A   Clear
1:55 PM 69.8 °F 51.8 °F 53% 30.13 in 10.0 mi Calm Calm - N/A   Clear
2:15 PM 69.8 °F 51.8 °F 53% 30.12 in 10.0 mi NNE 3.5 mph - N/A   Clear
2:35 PM 71.6 °F 51.8 °F 50% 30.11 in 10.0 mi Calm Calm - N/A   Clear
2:55 PM 71.6 °F 51.8 °F 50% 30.09 in 10.0 mi ENE 3.5 mph - N/A   Clear
5:35 PM 73.4 °F 51.8 °F 47% 30.04 in 10.0 mi SE 4.6 mph - N/A   Clear
5:55 PM 73.4 °F 53.6 °F 50% 30.04 in 10.0 mi SSE 3.5 mph - N/A   Clear
6:15 PM 73.4 °F 53.6 °F 50% 30.04 in 10.0 mi South 3.5 mph - N/A   Clear
6:35 PM 71.6 °F 53.6 °F 53% 30.04 in 10.0 mi South 4.6 mph - N/A   Clear
6:55 PM 69.8 °F 53.6 °F 56% 30.04 in 10.0 mi SSE 5.8 mph - N/A   Clear
7:15 PM 68.0 °F 53.6 °F 60% 30.04 in 10.0 mi SSE 4.6 mph - N/A   Clear
7:35 PM 68.0 °F 53.6 °F 60% 30.04 in 10.0 mi Calm Calm - N/A   Clear
7:55 PM 64.4 °F 53.6 °F 68% 30.04 in 10.0 mi Calm Calm - N/A   Clear
8:15 PM 64.4 °F 53.6 °F 68% 30.05 in 10.0 mi Calm Calm - N/A   Clear
8:35 PM 62.6 °F 53.6 °F 72% 30.05 in 10.0 mi Calm Calm - N/A   Clear
8:55 PM 60.8 °F 53.6 °F 77% 30.05 in 10.0 mi South 3.5 mph - N/A   Clear
9:15 PM 60.8 °F 51.8 °F 72% 30.05 in 10.0 mi Calm Calm - N/A   Clear
9:35 PM 59.0 °F 51.8 °F 77% 30.05 in 10.0 mi SE 3.5 mph - N/A   Clear
9:55 PM 60.8 °F 53.6 °F 77% 30.05 in 10.0 mi Calm Calm - N/A   Clear
10:15 PM 57.2 °F 51.8 °F 82% 30.05 in 10.0 mi Calm Calm - N/A   Clear
10:35 PM 57.2 °F 51.8 °F 82% 30.05 in 10.0 mi Calm Calm - N/A   Clear
10:55 PM 57.2 °F 53.6 °F 88% 30.05 in 10.0 mi SE 3.5 mph - N/A   Clear
11:15 PM 57.2 °F 51.8 °F 82% 30.05 in 10.0 mi Calm Calm - N/A   Clear
11:35 PM 55.4 °F 51.8 °F 88% 30.05 in 10.0 mi Calm Calm - N/A   Clear
11:55 PM 55.4 °F 51.8 °F 88% 30.04 in 10.0 mi Calm Calm - N/A   Clear